Location: Red Deer
(52.2681°N, 113.8112°W)
Time: 21:12:20
(UTC-06:00)

CAS-4B - Pass Details

Date: 05 June 2023
Orbit: 500 x 514 km, 43.0° (Epoch: 02 October)

Event Time Altitude Azimuth Distance (km) Brightness Sun altitude
Exits shadow 02:45:22 21° 171° (S) 1,179 ? -13.6°
Drops below altitude 10° 02:48:00 10° 130° (SE) 1,722 ? -13.5°
Enters shadow 04:00:37 -40° 283° (WNW) 8,994 ? -8.6°
